Time,TemperatureF,DewpointF,PressureIn,WindDirection,WindDirectionDegrees,WindSpeedMPH,WindSpeedGustMPH,Humidity,HourlyPrecipIn,Conditions,Clouds,dailyrainin,SolarRadiationWatts/m^2,SoftwareType,DateUTC
2013-03-02 00:01:00,33.0,30.9,30.03,ENE,78,4.0,5.0,92,0.00,,,0.01,0,Wunderground v.1.15,2013-03-02 05:01:00,
2013-03-02 00:02:00,33.0,30.9,30.03,NE,51,6.0,6.0,92,0.00,,,0.00,0,Wunderground v.1.15,2013-03-02 05:02:00,
2013-03-02 00:04:00,33.0,30.9,30.03,ENE,67,5.0,6.0,92,0.00,,,0.00,0,Wunderground v.1.15,2013-03-02 05:04:00,
2013-03-02 00:07:00,32.9,30.8,30.03,ENE,68,5.0,6.0,92,0.00,,,0.00,0,Wunderground v.1.15,2013-03-02 05:07:00,
2013-03-02 00:13:00,32.6,30.3,30.03,ENE,67,8.0,11.0,91,0.00,,,0.00,0,Wunderground v.1.15,2013-03-02 05:13:00,
2013-03-02 00:19:00,32.5,29.9,30.03,ESE,109,7.0,8.0,90,0.00,,,0.00,0,Wunderground v.1.15,2013-03-02 05:19:00,
2013-03-02 00:25:00,32.5,30.2,30.03,ENE,62,4.0,8.0,91,0.00,,,0.00,0,Wunderground v.1.15,2013-03-02 05:25:00,
2013-03-02 00:31:00,32.4,30.1,30.03,ENE,76,7.0,7.0,91,0.00,,,0.00,0,Wunderground v.1.15,2013-03-02 05:31:00,
2013-03-02 00:36:00,32.3,30.0,30.03,ESE,117,9.0,9.0,91,0.00,,,0.00,0,Wunderground v.1.15,2013-03-02 05:36:00,
2013-03-02 00:42:00,32.2,29.9,30.03,ENE,61,9.0,9.0,91,0.00,,,0.00,0,Wunderground v.1.15,2013-03-02 05:42:00,
2013-03-02 00:48:00,32.0,29.7,30.03,ENE,70,11.0,11.0,91,0.00,,,0.00,0,Wunderground v.1.15,2013-03-02 05:48:00,
2013-03-02 00:54:00,32.0,29.7,30.03,ENE,58,7.0,11.0,91,0.00,,,0.00,0,Wunderground v.1.15,2013-03-02 05:54:00,
2013-03-02 01:01:00,31.9,29.6,30.03,East,82,13.0,13.0,91,0.00,,,0.00,0,Wunderground v.1.15,2013-03-02 06:01:00,
2013-03-02 01:06:00,31.9,29.6,30.03,ENE,76,7.0,13.0,91,0.00,,,0.00,0,Wunderground v.1.15,2013-03-02 06:06:00,
2013-03-02 01:12:00,31.8,29.2,30.03,ENE,68,4.0,6.0,90,0.00,,,0.00,0,Wunderground v.1.15,2013-03-02 06:12:00,
2013-03-02 01:17:00,31.8,29.2,30.03,ESE,120,8.0,8.0,90,0.00,,,0.00,0,Wunderground v.1.15,2013-03-02 06:17:00,
2013-03-02 01:23:00,31.7,29.1,30.03,East,99,7.0,8.0,90,0.00,,,0.00,0,Wunderground v.1.15,2013-03-02 06:23:00,
2013-03-02 01:29:00,31.7,29.1,30.03,ENE,70,9.0,9.0,90,0.00,,,0.00,0,Wunderground v.1.15,2013-03-02 06:29:00,
2013-03-02 01:34:00,31.7,28.8,30.03,ENE,76,8.0,9.0,89,0.00,,,0.00,0,Wunderground v.1.15,2013-03-02 06:34:00,
2013-03-02 01:39:00,31.6,29.0,30.03,ENE,69,3.0,13.0,90,0.00,,,0.00,0,Wunderground v.1.15,2013-03-02 06:39:00,
2013-03-02 01:45:00,31.6,29.0,30.03,ESE,103,5.0,13.0,90,0.00,,,0.00,0,Wunderground v.1.15,2013-03-02 06:45:00,
2013-03-02 01:51:00,31.6,29.0,30.03,ENE,61,7.0,7.0,90,0.00,,,0.00,0,Wunderground v.1.15,2013-03-02 06:51:00,
2013-03-02 01:57:00,31.6,28.5,30.03,NE,51,9.0,12.0,88,0.00,,,0.00,0,Wunderground v.1.15,2013-03-02 06:57:00,
2013-03-02 02:02:00,31.6,28.5,30.03,ENE,59,3.0,8.0,88,0.00,,,0.00,0,Wunderground v.1.15,2013-03-02 07:02:00,
2013-03-02 02:07:00,31.5,28.4,30.03,ENE,57,7.0,9.0,88,0.00,,,0.00,0,Wunderground v.1.15,2013-03-02 07:07:00,
2013-03-02 02:12:00,31.5,28.4,30.03,ENE,63,7.0,8.0,88,0.00,,,0.00,0,Wunderground v.1.15,2013-03-02 07:12:00,
2013-03-02 02:17:00,31.4,28.5,30.03,NE,44,5.0,9.0,89,0.00,,,0.00,0,Wunderground v.1.15,2013-03-02 07:17:00,
2013-03-02 02:22:00,31.5,28.6,30.03,NE,53,5.0,7.0,89,0.00,,,0.00,0,Wunderground v.1.15,2013-03-02 07:22:00,
2013-03-02 02:27:00,31.4,28.5,30.03,ENE,57,4.0,8.0,89,0.00,,,0.00,0,Wunderground v.1.15,2013-03-02 07:27:00,
2013-03-02 02:32:00,31.4,28.5,30.03,ENE,65,4.0,8.0,89,0.00,,,0.00,0,Wunderground v.1.15,2013-03-02 07:32:00,
2013-03-02 02:37:00,31.4,28.5,30.03,NE,55,7.0,8.0,89,0.00,,,0.00,0,Wunderground v.1.15,2013-03-02 07:37:00,
2013-03-02 02:42:00,31.4,28.5,30.03,NE,52,7.0,9.0,89,0.00,,,0.00,0,Wunderground v.1.15,2013-03-02 07:42:00,
2013-03-02 02:47:00,31.4,28.3,30.02,ENE,75,5.0,10.0,88,0.00,,,0.00,0,Wunderground v.1.15,2013-03-02 07:47:00,
2013-03-02 02:52:00,31.3,28.4,30.02,ENE,65,5.0,9.0,89,0.00,,,0.00,0,Wunderground v.1.15,2013-03-02 07:52:00,
2013-03-02 02:57:00,31.3,28.4,30.02,ENE,65,4.0,9.0,89,0.00,,,0.00,0,Wunderground v.1.15,2013-03-02 07:57:00,
2013-03-02 03:02:00,31.4,28.5,30.03,NE,51,3.0,5.0,89,0.00,,,0.00,0,Wunderground v.1.15,2013-03-02 08:02:00,
2013-03-02 03:07:00,31.3,28.4,30.02,ENE,60,4.0,7.0,89,0.00,,,0.00,0,Wunderground v.1.15,2013-03-02 08:07:00,
2013-03-02 03:12:00,31.4,28.3,30.02,ENE,61,4.0,10.0,88,0.00,,,0.00,0,Wunderground v.1.15,2013-03-02 08:12:00,
2013-03-02 03:17:00,31.4,28.0,30.02,ENE,63,9.0,11.0,87,0.00,,,0.00,0,Wunderground v.1.15,2013-03-02 08:17:00,
2013-03-02 03:22:00,31.4,27.7,30.02,NE,41,8.0,10.0,86,0.00,,,0.00,0,Wunderground v.1.15,2013-03-02 08:22:00,
2013-03-02 03:27:00,31.3,27.6,30.02,East,86,2.0,10.0,86,0.00,,,0.00,0,Wunderground v.1.15,2013-03-02 08:27:00,
2013-03-02 03:32:00,31.3,27.6,30.02,ENE,60,5.0,9.0,86,0.00,,,0.00,0,Wunderground v.1.15,2013-03-02 08:32:00,
2013-03-02 03:37:00,31.3,27.3,30.02,NE,51,7.0,9.0,85,0.00,,,0.00,0,Wunderground v.1.15,2013-03-02 08:37:00,
2013-03-02 03:43:00,31.2,26.9,30.02,NE,52,6.0,11.0,84,0.00,,,0.00,0,Wunderground v.1.15,2013-03-02 08:43:00,
2013-03-02 03:48:00,31.1,26.8,30.02,ENE,58,8.0,11.0,84,0.00,,,0.00,0,Wunderground v.1.15,2013-03-02 08:48:00,
2013-03-02 03:53:00,31.1,26.8,30.02,ENE,63,7.0,8.0,84,0.00,,,0.00,0,Wunderground v.1.15,2013-03-02 08:53:00,
2013-03-02 03:58:00,31.0,26.4,30.02,NE,44,6.0,12.0,83,0.00,,,0.00,0,Wunderground v.1.15,2013-03-02 08:58:00,
2013-03-02 04:03:00,30.9,26.3,30.02,ENE,65,7.0,8.0,83,0.00,,,0.00,0,Wunderground v.1.15,2013-03-02 09:03:00,
2013-03-02 04:08:00,30.9,26.6,30.02,NE,44,6.0,9.0,84,0.00,,,0.00,0,Wunderground v.1.15,2013-03-02 09:08:00,
2013-03-02 04:13:00,30.8,26.0,30.02,East,82,6.0,11.0,82,0.00,,,0.00,0,Wunderground v.1.15,2013-03-02 09:13:00,
2013-03-02 04:18:00,30.8,26.0,30.02,ENE,74,9.0,12.0,82,0.00,,,0.00,0,Wunderground v.1.15,2013-03-02 09:18:00,
2013-03-02 04:23:00,30.7,25.9,30.03,ENE,60,7.0,11.0,82,0.00,,,0.00,0,Wunderground v.1.15,2013-03-02 09:23:00,
2013-03-02 04:28:00,30.7,25.9,30.02,ENE,78,7.0,11.0,82,0.00,,,0.00,0,Wunderground v.1.15,2013-03-02 09:28:00,
2013-03-02 04:33:00,30.6,25.8,30.02,NE,49,5.0,9.0,82,0.00,,,0.00,0,Wunderground v.1.15,2013-03-02 09:33:00,
2013-03-02 04:38:00,30.6,25.8,30.02,NE,53,5.0,9.0,82,0.00,,,0.00,0,Wunderground v.1.15,2013-03-02 09:38:00,
2013-03-02 04:43:00,30.6,26.1,30.02,NE,44,7.0,8.0,83,0.00,,,0.00,0,Wunderground v.1.15,2013-03-02 09:43:00,
2013-03-02 04:48:00,30.5,25.7,30.02,ENE,57,5.0,8.0,82,0.00,,,0.00,0,Wunderground v.1.15,2013-03-02 09:48:00,
2013-03-02 04:53:00,30.5,25.7,30.03,ENE,70,4.0,9.0,82,0.00,,,0.00,0,Wunderground v.1.15,2013-03-02 09:53:00,
2013-03-02 04:58:00,30.5,25.7,30.02,ENE,65,4.0,9.0,82,0.00,,,0.00,0,Wunderground v.1.15,2013-03-02 09:58:00,
2013-03-02 05:03:00,30.4,25.6,30.03,ENE,68,5.0,9.0,82,0.00,,,0.00,0,Wunderground v.1.15,2013-03-02 10:03:00,
2013-03-02 05:08:00,30.4,25.6,30.03,NNE,30,7.0,11.0,82,0.00,,,0.00,0,Wunderground v.1.15,2013-03-02 10:08:00,
2013-03-02 05:13:00,30.3,25.5,30.03,East,85,7.0,11.0,82,0.00,,,0.00,0,Wunderground v.1.15,2013-03-02 10:13:00,
2013-03-02 05:18:00,30.2,25.4,30.03,NE,51,7.0,11.0,82,0.00,,,0.00,0,Wunderground v.1.15,2013-03-02 10:18:00,
2013-03-02 05:23:00,30.2,25.4,30.03,ENE,65,8.0,10.0,82,0.00,,,0.00,0,Wunderground v.1.15,2013-03-02 10:23:00,
2013-03-02 05:28:00,30.1,25.3,30.03,NE,54,2.0,10.0,82,0.00,,,0.00,0,Wunderground v.1.15,2013-03-02 10:28:00,
2013-03-02 05:33:00,30.2,25.1,30.03,NE,43,5.0,7.0,81,0.00,,,0.00,0,Wunderground v.1.15,2013-03-02 10:33:00,
2013-03-02 05:38:00,30.1,24.7,30.03,NE,53,5.0,10.0,80,0.00,,,0.00,0,Wunderground v.1.15,2013-03-02 10:38:00,
2013-03-02 05:43:00,30.1,24.7,30.03,NE,46,4.0,9.0,80,0.00,,,0.00,0,Wunderground v.1.15,2013-03-02 10:43:00,
2013-03-02 05:48:00,30.1,24.7,30.03,ENE,61,8.0,9.0,80,0.00,,,0.00,0,Wunderground v.1.15,2013-03-02 10:48:00,
2013-03-02 05:53:00,30.1,25.0,30.03,NE,49,3.0,5.0,81,0.00,,,0.00,0,Wunderground v.1.15,2013-03-02 10:53:00,
2013-03-02 05:58:00,30.0,25.2,30.03,ENE,60,3.0,5.0,82,0.00,,,0.00,0,Wunderground v.1.15,2013-03-02 10:58:00,
2013-03-02 06:03:00,30.0,25.2,30.03,NE,51,3.0,5.0,82,0.00,,,0.00,0,Wunderground v.1.15,2013-03-02 11:03:00,
2013-03-02 06:08:00,30.0,25.2,30.03,NE,43,6.0,6.0,82,0.00,,,0.00,0,Wunderground v.1.15,2013-03-02 11:08:00,
2013-03-02 06:13:00,30.0,24.9,30.03,NE,49,7.0,8.0,81,0.00,,,0.00,0,Wunderground v.1.15,2013-03-02 11:13:00,
2013-03-02 06:18:00,29.9,24.8,30.03,NE,54,4.0,8.0,81,0.00,,,0.00,0,Wunderground v.1.15,2013-03-02 11:18:00,
2013-03-02 06:23:00,29.9,25.1,30.04,NE,40,7.0,8.0,82,0.00,,,0.00,0,Wunderground v.1.15,2013-03-02 11:23:00,
2013-03-02 06:28:00,29.8,25.0,30.04,NE,36,6.0,8.0,82,0.00,,,0.00,0,Wunderground v.1.15,2013-03-02 11:28:00,
2013-03-02 06:33:00,29.8,25.0,30.04,NNE,22,6.0,8.0,82,0.00,,,0.00,0,Wunderground v.1.15,2013-03-02 11:33:00,
2013-03-02 06:38:00,29.7,24.9,30.04,NNE,27,5.0,9.0,82,0.00,,,0.00,0,Wunderground v.1.15,2013-03-02 11:38:00,
2013-03-02 06:43:00,29.7,25.2,30.04,NNE,29,6.0,10.0,83,0.00,,,0.00,0,Wunderground v.1.15,2013-03-02 11:43:00,
2013-03-02 06:48:00,29.6,25.1,30.04,NNE,22,9.0,10.0,83,0.00,,,0.00,0,Wunderground v.1.15,2013-03-02 11:48:00,
2013-03-02 06:53:00,29.5,25.0,30.04,NNE,33,5.0,9.0,83,0.00,,,0.00,0,Wunderground v.1.15,2013-03-02 11:53:00,
2013-03-02 06:58:00,29.4,24.9,30.05,NE,46,6.0,10.0,83,0.00,,,0.00,0,Wunderground v.1.15,2013-03-02 11:58:00,
2013-03-02 07:04:00,29.4,24.9,30.05,NE,38,7.0,10.0,83,0.00,,,0.00,0,Wunderground v.1.15,2013-03-02 12:04:00,
2013-03-02 07:09:00,29.3,24.8,30.05,NE,40,8.0,10.0,83,0.00,,,0.00,0,Wunderground v.1.15,2013-03-02 12:09:00,
2013-03-02 07:14:00,29.3,24.8,30.05,NE,42,9.0,10.0,83,0.00,,,0.00,0,Wunderground v.1.15,2013-03-02 12:14:00,
2013-03-02 07:19:00,29.3,25.1,30.05,NE,52,5.0,10.0,84,0.00,,,0.00,0,Wunderground v.1.15,2013-03-02 12:19:00,
2013-03-02 07:24:00,29.3,24.8,30.05,NE,36,7.0,8.0,83,0.00,,,0.00,11,Wunderground v.1.15,2013-03-02 12:24:00,
2013-03-02 07:29:00,29.3,24.8,30.05,ENE,67,7.0,11.0,83,0.00,,,0.00,12,Wunderground v.1.15,2013-03-02 12:29:00,
2013-03-02 07:34:00,29.2,24.7,30.05,NE,42,7.0,10.0,83,0.00,,,0.00,11,Wunderground v.1.15,2013-03-02 12:34:00,
2013-03-02 07:39:00,29.2,24.7,30.05,NNE,29,5.0,12.0,83,0.00,,,0.00,12,Wunderground v.1.15,2013-03-02 12:39:00,
2013-03-02 07:44:00,29.1,24.6,30.05,NE,43,8.0,11.0,83,0.00,,,0.00,14,Wunderground v.1.15,2013-03-02 12:44:00,
2013-03-02 07:49:00,29.1,24.6,30.06,NE,34,6.0,11.0,83,0.00,,,0.00,16,Wunderground v.1.15,2013-03-02 12:49:00,
2013-03-02 07:54:00,29.2,25.0,30.06,NNE,23,5.0,8.0,84,0.00,,,0.00,14,Wunderground v.1.15,2013-03-02 12:54:00,
2013-03-02 07:59:00,29.2,25.3,30.06,NNE,24,6.0,8.0,85,0.00,,,0.00,14,Wunderground v.1.15,2013-03-02 12:59:00,
2013-03-02 08:04:00,29.2,25.3,30.06,NW,322,9.0,9.0,85,0.00,,,0.00,23,Wunderground v.1.15,2013-03-02 13:04:00,
2013-03-02 08:09:00,29.1,25.2,30.06,NNE,32,6.0,12.0,85,0.00,,,0.00,35,Wunderground v.1.15,2013-03-02 13:09:00,
2013-03-02 08:14:00,29.1,24.9,30.06,NE,52,9.0,11.0,84,0.00,,,0.00,33,Wunderground v.1.15,2013-03-02 13:14:00,
2013-03-02 08:19:00,29.1,24.6,30.06,NE,38,6.0,11.0,83,0.00,,,0.00,46,Wunderground v.1.15,2013-03-02 13:19:00,
2013-03-02 08:24:00,29.1,24.9,30.07,NE,48,11.0,11.0,84,0.00,,,0.00,44,Wunderground v.1.15,2013-03-02 13:24:00,
2013-03-02 08:29:00,29.1,24.9,30.07,NNE,21,8.0,8.0,84,0.00,,,0.00,63,Wunderground v.1.15,2013-03-02 13:29:00,
2013-03-02 08:34:00,29.1,24.6,30.07,NE,34,8.0,11.0,83,0.00,,,0.00,81,Wunderground v.1.15,2013-03-02 13:34:00,
2013-03-02 08:39:00,28.9,24.4,30.07,NE,50,7.0,8.0,83,0.00,,,0.01,97,Wunderground v.1.15,2013-03-02 13:39:00,
2013-03-02 08:44:00,29.0,24.2,30.07,NE,37,6.0,10.0,82,0.00,,,0.01,105,Wunderground v.1.15,2013-03-02 13:44:00,
2013-03-02 08:49:00,29.1,24.6,30.07,NNE,30,5.0,7.0,83,0.00,,,0.01,116,Wunderground v.1.15,2013-03-02 13:49:00,
2013-03-02 08:54:00,29.1,24.3,30.07,NE,40,7.0,12.0,82,0.00,,,0.01,107,Wunderground v.1.15,2013-03-02 13:54:00,
2013-03-02 08:59:00,29.1,24.6,30.07,NE,42,6.0,7.0,83,0.00,,,0.01,118,Wunderground v.1.15,2013-03-02 13:59:00,
2013-03-02 09:04:00,29.0,24.5,30.07,ENE,63,7.0,10.0,83,0.00,,,0.01,118,Wunderground v.1.15,2013-03-02 14:04:00,
2013-03-02 09:09:00,29.1,24.6,30.07,NE,38,6.0,8.0,83,0.00,,,0.01,102,Wunderground v.1.15,2013-03-02 14:09:00,
2013-03-02 09:14:00,29.1,24.9,30.07,NE,49,8.0,10.0,84,0.00,,,0.01,123,Wunderground v.1.15,2013-03-02 14:14:00,
2013-03-02 09:19:00,28.8,24.6,30.07,NE,49,5.0,8.0,84,0.00,,,0.01,114,Wunderground v.1.15,2013-03-02 14:19:00,
2013-03-02 09:24:00,29.0,24.8,30.07,NE,42,10.0,12.0,84,0.00,,,0.01,142,Wunderground v.1.15,2013-03-02 14:24:00,
2013-03-02 09:29:00,29.0,24.8,30.07,NNE,31,8.0,9.0,84,0.00,,,0.01,202,Wunderground v.1.15,2013-03-02 14:29:00,
2013-03-02 09:34:00,29.1,24.9,30.08,NE,36,10.0,11.0,84,0.00,,,0.01,165,Wunderground v.1.15,2013-03-02 14:34:00,
2013-03-02 09:39:00,29.0,24.5,30.08,NNE,32,5.0,8.0,83,0.00,,,0.01,169,Wunderground v.1.15,2013-03-02 14:39:00,
2013-03-02 09:44:00,29.2,24.7,30.08,NE,44,10.0,11.0,83,0.00,,,0.01,146,Wunderground v.1.15,2013-03-02 14:44:00,
2013-03-02 09:49:00,29.1,24.3,30.08,NE,47,8.0,8.0,82,0.00,,,0.01,178,Wunderground v.1.15,2013-03-02 14:49:00,
2013-03-02 09:54:00,29.3,24.5,30.08,NNE,24,5.0,14.0,82,0.00,,,0.01,199,Wunderground v.1.15,2013-03-02 14:54:00,
2013-03-02 09:59:00,29.2,24.4,30.08,NE,40,8.0,9.0,82,0.00,,,0.01,167,Wunderground v.1.15,2013-03-02 14:59:00,
2013-03-02 10:04:00,29.3,25.1,30.08,NNE,26,9.0,10.0,84,0.00,,,0.01,162,Wunderground v.1.15,2013-03-02 15:04:00,
2013-03-02 10:09:00,29.1,24.6,30.08,NE,36,8.0,9.0,83,0.00,,,0.01,178,Wunderground v.1.15,2013-03-02 15:09:00,
2013-03-02 10:14:00,29.0,24.2,30.08,NE,42,8.0,14.0,82,0.00,,,0.01,156,Wunderground v.1.15,2013-03-02 15:14:00,
2013-03-02 10:19:00,29.1,24.6,30.08,NE,49,5.0,8.0,83,0.00,,,0.01,190,Wunderground v.1.15,2013-03-02 15:19:00,
2013-03-02 10:24:00,29.0,24.5,30.08,NE,41,12.0,15.0,83,0.00,,,0.01,190,Wunderground v.1.15,2013-03-02 15:24:00,
2013-03-02 10:29:00,29.0,24.8,30.08,NE,44,6.0,9.0,84,0.00,,,0.01,151,Wunderground v.1.15,2013-03-02 15:29:00,
2013-03-02 10:34:00,28.8,24.9,30.08,NE,38,4.0,13.0,85,0.00,,,0.01,207,Wunderground v.1.15,2013-03-02 15:34:00,
2013-03-02 10:40:00,29.0,25.3,30.08,NNE,29,10.0,10.0,86,0.00,,,0.01,200,Wunderground v.1.15,2013-03-02 15:40:00,
2013-03-02 10:45:00,29.0,24.8,30.08,NNE,22,7.0,12.0,84,0.00,,,0.01,206,Wunderground v.1.15,2013-03-02 15:45:00,
2013-03-02 10:50:00,29.2,25.0,30.08,NE,34,7.0,8.0,84,0.00,,,0.01,160,Wunderground v.1.15,2013-03-02 15:50:00,
2013-03-02 10:55:00,29.2,25.0,30.08,North,9,8.0,12.0,84,0.00,,,0.01,172,Wunderground v.1.15,2013-03-02 15:55:00,
2013-03-02 11:01:00,29.3,24.8,30.09,NE,35,11.0,11.0,83,0.00,,,0.01,243,Wunderground v.1.15,2013-03-02 16:01:00,
2013-03-02 11:06:00,29.2,24.1,30.09,NE,41,7.0,12.0,81,0.00,,,0.01,207,Wunderground v.1.15,2013-03-02 16:06:00,
2013-03-02 11:11:00,29.5,25.3,30.09,NE,42,6.0,8.0,84,0.00,,,0.01,216,Wunderground v.1.15,2013-03-02 16:11:00,
2013-03-02 11:16:00,29.5,24.7,30.09,NE,35,10.0,12.0,82,0.00,,,0.01,248,Wunderground v.1.15,2013-03-02 16:16:00,
2013-03-02 11:21:00,29.6,24.8,30.09,NNE,28,10.0,10.0,82,0.00,,,0.01,200,Wunderground v.1.15,2013-03-02 16:21:00,
2013-03-02 11:26:00,29.6,24.5,30.09,NNE,19,11.0,12.0,81,0.00,,,0.01,174,Wunderground v.1.15,2013-03-02 16:26:00,
2013-03-02 11:31:00,29.7,24.6,30.09,North,11,9.0,10.0,81,0.00,,,0.01,107,Wunderground v.1.15,2013-03-02 16:31:00,
2013-03-02 11:36:00,29.3,25.1,30.09,NE,38,8.0,11.0,84,0.00,,,0.01,232,Wunderground v.1.15,2013-03-02 16:36:00,
2013-03-02 11:41:00,29.4,25.2,30.09,NNE,32,4.0,9.0,84,0.00,,,0.01,229,Wunderground v.1.15,2013-03-02 16:41:00,
2013-03-02 11:46:00,29.4,24.9,30.09,NE,55,10.0,14.0,83,0.00,,,0.01,211,Wunderground v.1.15,2013-03-02 16:46:00,
2013-03-02 11:51:00,29.2,25.0,30.10,NNE,21,10.0,13.0,84,0.00,,,0.01,172,Wunderground v.1.15,2013-03-02 16:51:00,
2013-03-02 11:56:00,29.2,25.3,30.10,NE,38,9.0,13.0,85,0.00,,,0.01,190,Wunderground v.1.15,2013-03-02 16:56:00,
2013-03-02 12:01:00,29.0,25.1,30.10,NNE,26,8.0,10.0,85,0.00,,,0.01,141,Wunderground v.1.15,2013-03-02 17:01:00,
2013-03-02 12:06:00,28.8,24.6,30.09,NNE,33,7.0,11.0,84,0.00,,,0.01,104,Wunderground v.1.15,2013-03-02 17:06:00,
2013-03-02 12:11:00,28.8,24.9,30.09,NNE,27,5.0,10.0,85,0.00,,,0.01,107,Wunderground v.1.15,2013-03-02 17:11:00,
2013-03-02 12:16:00,28.8,24.9,30.09,NNE,20,9.0,10.0,85,0.00,,,0.01,121,Wunderground v.1.15,2013-03-02 17:16:00,
2013-03-02 12:21:00,28.8,24.6,30.09,NE,44,7.0,10.0,84,0.00,,,0.01,144,Wunderground v.1.15,2013-03-02 17:21:00,
2013-03-02 12:27:00,28.8,24.3,30.09,NNE,18,10.0,11.0,83,0.00,,,0.01,176,Wunderground v.1.15,2013-03-02 17:27:00,
2013-03-02 12:32:00,28.9,24.1,30.09,NNE,29,7.0,13.0,82,0.00,,,0.01,213,Wunderground v.1.15,2013-03-02 17:32:00,
2013-03-02 12:37:00,29.4,24.9,30.09,NNE,30,6.0,13.0,83,0.00,,,0.01,260,Wunderground v.1.15,2013-03-02 17:37:00,
2013-03-02 12:42:00,29.8,24.7,30.09,NE,34,8.0,10.0,81,0.00,,,0.01,278,Wunderground v.1.15,2013-03-02 17:42:00,
2013-03-02 12:47:00,29.8,25.0,30.09,NNE,15,6.0,13.0,82,0.00,,,0.01,169,Wunderground v.1.15,2013-03-02 17:47:00,
2013-03-02 12:52:00,29.6,25.1,30.09,NNE,19,8.0,11.0,83,0.00,,,0.01,183,Wunderground v.1.15,2013-03-02 17:52:00,
2013-03-02 12:57:00,29.5,25.0,30.09,North,9,6.0,13.0,83,0.00,,,0.01,241,Wunderground v.1.15,2013-03-02 17:57:00,
2013-03-02 13:02:00,29.5,25.0,30.08,NNE,24,6.0,11.0,83,0.00,,,0.01,281,Wunderground v.1.15,2013-03-02 18:02:00,
2013-03-02 13:07:00,29.8,25.6,30.08,North,9,7.0,11.0,84,0.00,,,0.01,348,Wunderground v.1.15,2013-03-02 18:07:00,
2013-03-02 13:12:00,30.1,25.6,30.08,North,5,7.0,10.0,83,0.00,,,0.01,216,Wunderground v.1.15,2013-03-02 18:12:00,
2013-03-02 13:17:00,29.9,25.4,30.08,NNE,13,6.0,10.0,83,0.00,,,0.01,100,Wunderground v.1.15,2013-03-02 18:17:00,
2013-03-02 13:22:00,29.6,25.1,30.08,NE,40,9.0,11.0,83,0.00,,,0.01,84,Wunderground v.1.15,2013-03-02 18:22:00,
2013-03-02 13:27:00,29.1,24.6,30.08,NE,36,10.0,13.0,83,0.00,,,0.01,93,Wunderground v.1.15,2013-03-02 18:27:00,
2013-03-02 13:32:00,28.9,24.4,30.08,NE,38,11.0,14.0,83,0.00,,,0.01,98,Wunderground v.1.15,2013-03-02 18:32:00,
2013-03-02 13:37:00,28.8,24.9,30.08,NE,34,7.0,14.0,85,0.00,,,0.01,121,Wunderground v.1.15,2013-03-02 18:37:00,
2013-03-02 13:42:00,28.7,24.8,30.08,NNE,29,8.0,10.0,85,0.00,,,0.01,128,Wunderground v.1.15,2013-03-02 18:42:00,
2013-03-02 13:47:00,28.8,24.9,30.08,NNE,22,8.0,10.0,85,0.00,,,0.01,134,Wunderground v.1.15,2013-03-02 18:47:00,
2013-03-02 13:52:00,28.8,24.9,30.08,NE,39,7.0,9.0,85,0.00,,,0.01,130,Wunderground v.1.15,2013-03-02 18:52:00,
2013-03-02 13:57:00,28.9,25.0,30.08,NE,36,6.0,9.0,85,0.00,,,0.01,141,Wunderground v.1.15,2013-03-02 18:57:00,
2013-03-02 14:02:00,28.9,24.7,30.08,NNE,18,12.0,13.0,84,0.00,,,0.01,167,Wunderground v.1.15,2013-03-02 19:02:00,
2013-03-02 14:07:00,28.9,24.7,30.07,NE,43,9.0,13.0,84,0.00,,,0.01,211,Wunderground v.1.15,2013-03-02 19:07:00,
2013-03-02 14:12:00,29.0,25.1,30.07,NE,39,5.0,10.0,85,0.00,,,0.01,262,Wunderground v.1.15,2013-03-02 19:12:00,
2013-03-02 14:17:00,29.4,25.2,30.07,North,5,5.0,10.0,84,0.00,,,0.01,294,Wunderground v.1.15,2013-03-02 19:17:00,
2013-03-02 14:22:00,29.9,25.7,30.07,NNE,24,4.0,10.0,84,0.00,,,0.01,304,Wunderground v.1.15,2013-03-02 19:22:00,
2013-03-02 14:27:00,30.1,25.8,30.07,North,5,3.0,10.0,84,0.00,,,0.01,227,Wunderground v.1.15,2013-03-02 19:27:00,
2013-03-02 14:32:00,30.1,25.3,30.07,NE,35,10.0,11.0,82,0.00,,,0.01,253,Wunderground v.1.15,2013-03-02 19:32:00,
2013-03-02 14:37:00,30.2,25.1,30.07,NE,42,5.0,11.0,81,0.00,,,0.01,237,Wunderground v.1.15,2013-03-02 19:37:00,
2013-03-02 14:42:00,30.3,25.2,30.07,NNE,15,8.0,11.0,81,0.00,,,0.01,125,Wunderground v.1.15,2013-03-02 19:42:00,
2013-03-02 14:47:00,29.9,25.1,30.07,NNE,30,6.0,12.0,82,0.00,,,0.01,118,Wunderground v.1.15,2013-03-02 19:47:00,
2013-03-02 14:52:00,29.9,25.7,30.07,NNE,14,10.0,11.0,84,0.00,,,0.01,142,Wunderground v.1.15,2013-03-02 19:52:00,
2013-03-02 14:57:00,29.8,25.0,30.07,NNE,27,13.0,14.0,82,0.00,,,0.01,153,Wunderground v.1.15,2013-03-02 19:57:00,
2013-03-02 15:03:00,29.8,25.0,30.08,NNE,27,9.0,13.0,82,0.00,,,0.01,171,Wunderground v.1.15,2013-03-02 20:03:00,
2013-03-02 15:08:00,29.6,24.8,30.08,NNE,26,11.0,13.0,82,0.00,,,0.01,176,Wunderground v.1.15,2013-03-02 20:08:00,
2013-03-02 15:12:00,29.7,24.9,30.08,North,5,8.0,10.0,82,0.00,,,0.01,176,Wunderground v.1.15,2013-03-02 20:12:00,
2013-03-02 15:17:00,29.8,24.7,30.08,NE,34,6.0,10.0,81,0.00,,,0.01,160,Wunderground v.1.15,2013-03-02 20:17:00,
2013-03-02 15:22:00,29.7,24.0,30.08,NNE,28,11.0,13.0,79,0.00,,,0.01,163,Wunderground v.1.15,2013-03-02 20:22:00,
2013-03-02 15:27:00,29.7,24.0,30.07,NE,37,7.0,13.0,79,0.00,,,0.01,153,Wunderground v.1.15,2013-03-02 20:27:00,
2013-03-02 15:33:00,29.9,24.5,30.07,NE,35,6.0,11.0,80,0.00,,,0.01,146,Wunderground v.1.15,2013-03-02 20:33:00,
2013-03-02 15:38:00,29.8,24.1,30.08,NE,48,7.0,11.0,79,0.00,,,0.01,141,Wunderground v.1.15,2013-03-02 20:38:00,
2013-03-02 15:43:00,29.9,24.5,30.08,NE,53,6.0,12.0,80,0.00,,,0.01,139,Wunderground v.1.15,2013-03-02 20:43:00,
2013-03-02 15:48:00,30.0,24.3,30.08,NNE,31,8.0,12.0,79,0.00,,,0.01,120,Wunderground v.1.15,2013-03-02 20:48:00,
2013-03-02 15:53:00,30.0,24.0,30.08,NNE,15,7.0,11.0,78,0.00,,,0.01,102,Wunderground v.1.15,2013-03-02 20:53:00,
2013-03-02 15:58:00,29.8,23.8,30.08,NNE,12,6.0,11.0,78,0.00,,,0.01,83,Wunderground v.1.15,2013-03-02 20:58:00,
2013-03-02 16:03:00,29.8,24.1,30.08,NE,49,7.0,9.0,79,0.00,,,0.01,81,Wunderground v.1.15,2013-03-02 21:03:00,
2013-03-02 16:08:00,29.4,24.3,30.08,NE,34,7.0,9.0,81,0.00,,,0.01,77,Wunderground v.1.15,2013-03-02 21:08:00,
2013-03-02 16:13:00,29.2,24.7,30.08,NE,42,6.0,10.0,83,0.00,,,0.01,91,Wunderground v.1.15,2013-03-02 21:13:00,
2013-03-02 16:18:00,29.2,25.0,30.08,NNE,19,10.0,10.0,84,0.00,,,0.01,63,Wunderground v.1.15,2013-03-02 21:18:00,
2013-03-02 16:23:00,28.8,24.6,30.08,NE,44,6.0,12.0,84,0.00,,,0.01,79,Wunderground v.1.15,2013-03-02 21:23:00,
2013-03-02 16:28:00,28.5,24.6,30.08,NNE,27,8.0,12.0,85,0.00,,,0.01,79,Wunderground v.1.15,2013-03-02 21:28:00,
2013-03-02 16:33:00,28.4,24.7,30.08,NE,40,5.0,8.0,86,0.00,,,0.01,77,Wunderground v.1.15,2013-03-02 21:33:00,
2013-03-02 16:38:00,28.5,25.1,30.09,NE,34,6.0,8.0,87,0.00,,,0.01,83,Wunderground v.1.15,2013-03-02 21:38:00,
2013-03-02 16:43:00,28.5,25.1,30.09,NE,36,4.0,8.0,87,0.00,,,0.01,84,Wunderground v.1.15,2013-03-02 21:43:00,
2013-03-02 16:48:00,28.5,24.8,30.09,North,5,6.0,8.0,86,0.00,,,0.01,60,Wunderground v.1.15,2013-03-02 21:48:00,
2013-03-02 16:53:00,28.6,24.9,30.09,NE,40,5.0,7.0,86,0.00,,,0.01,44,Wunderground v.1.15,2013-03-02 21:53:00,
2013-03-02 16:58:00,28.4,24.7,30.09,North,5,7.0,10.0,86,0.00,,,0.01,33,Wunderground v.1.15,2013-03-02 21:58:00,
2013-03-02 17:03:00,28.3,24.6,30.09,NE,37,5.0,6.0,86,0.00,,,0.01,32,Wunderground v.1.15,2013-03-02 22:03:00,
2013-03-02 17:08:00,28.3,24.6,30.09,NNE,15,3.0,8.0,86,0.00,,,0.01,32,Wunderground v.1.15,2013-03-02 22:08:00,
2013-03-02 17:13:00,28.4,24.7,30.09,NNE,15,4.0,6.0,86,0.00,,,0.01,40,Wunderground v.1.15,2013-03-02 22:13:00,
2013-03-02 17:18:00,28.4,25.0,30.10,NNE,25,4.0,6.0,87,0.00,,,0.01,28,Wunderground v.1.15,2013-03-02 22:18:00,
2013-03-02 17:23:00,28.5,25.1,30.10,NE,38,4.0,7.0,87,0.00,,,0.01,16,Wunderground v.1.15,2013-03-02 22:23:00,
2013-03-02 17:28:00,28.3,24.9,30.10,NNE,18,8.0,10.0,87,0.00,,,0.01,12,Wunderground v.1.15,2013-03-02 22:28:00,
2013-03-02 17:33:00,28.2,25.1,30.10,NNE,19,4.0,7.0,88,0.00,,,0.01,18,Wunderground v.1.15,2013-03-02 22:33:00,
2013-03-02 17:39:00,28.1,25.0,30.10,NNE,24,5.0,7.0,88,0.00,,,0.01,30,Wunderground v.1.15,2013-03-02 22:39:00,
2013-03-02 17:44:00,28.1,25.3,30.10,NNE,26,4.0,7.0,89,0.00,,,0.01,35,Wunderground v.1.15,2013-03-02 22:44:00,
2013-03-02 17:49:00,28.1,25.3,30.10,NNE,17,3.0,7.0,89,0.00,,,0.01,30,Wunderground v.1.15,2013-03-02 22:49:00,
2013-03-02 17:54:00,28.1,25.3,30.10,NNW,342,7.0,7.0,89,0.00,,,0.01,33,Wunderground v.1.15,2013-03-02 22:54:00,
2013-03-02 17:59:00,28.2,25.1,30.10,NNE,20,3.0,7.0,88,0.00,,,0.01,32,Wunderground v.1.15,2013-03-02 22:59:00,
2013-03-02 18:04:00,28.2,24.8,30.11,North,360,5.0,6.0,87,0.00,,,0.01,23,Wunderground v.1.15,2013-03-02 23:04:00,
2013-03-02 18:09:00,28.2,24.6,30.11,North,351,6.0,8.0,86,0.00,,,0.01,12,Wunderground v.1.15,2013-03-02 23:09:00,
2013-03-02 18:14:00,28.3,24.6,30.11,NNW,336,5.0,8.0,86,0.00,,,0.01,9,Wunderground v.1.15,2013-03-02 23:14:00,
2013-03-02 18:19:00,28.3,24.4,30.11,NNE,26,10.0,10.0,85,0.00,,,0.01,5,Wunderground v.1.15,2013-03-02 23:19:00,
2013-03-02 18:24:00,28.3,24.4,30.11,North,9,7.0,10.0,85,0.00,,,0.01,0,Wunderground v.1.15,2013-03-02 23:24:00,
2013-03-02 18:29:00,28.2,24.0,30.12,NNW,346,4.0,11.0,84,0.00,,,0.01,0,Wunderground v.1.15,2013-03-02 23:29:00,
2013-03-02 18:34:00,28.1,23.6,30.11,NE,35,5.0,11.0,83,0.00,,,0.01,0,Wunderground v.1.15,2013-03-02 23:34:00,
2013-03-02 18:39:00,28.0,23.5,30.11,NNE,26,7.0,11.0,83,0.00,,,0.01,0,Wunderground v.1.15,2013-03-02 23:39:00,
2013-03-02 18:44:00,27.9,23.7,30.11,NNE,25,4.0,9.0,84,0.00,,,0.01,0,Wunderground v.1.15,2013-03-02 23:44:00,
2013-03-02 18:49:00,28.0,23.5,30.12,NNE,17,6.0,9.0,83,0.00,,,0.01,0,Wunderground v.1.15,2013-03-02 23:49:00,
2013-03-02 18:54:00,28.0,23.5,30.11,NNE,19,6.0,7.0,83,0.00,,,0.01,0,Wunderground v.1.15,2013-03-02 23:54:00,
2013-03-02 18:59:00,28.0,23.8,30.12,North,5,3.0,7.0,84,0.00,,,0.01,0,Wunderground v.1.15,2013-03-02 23:59:00,
2013-03-02 19:04:00,28.0,23.8,30.12,NNE,12,3.0,7.0,84,0.00,,,0.01,0,Wunderground v.1.15,2013-03-03 00:04:00,
2013-03-02 19:09:00,28.2,23.7,30.12,NNE,25,6.0,6.0,83,0.00,,,0.01,0,Wunderground v.1.15,2013-03-03 00:09:00,
2013-03-02 19:14:00,28.3,23.2,30.12,NNE,20,4.0,9.0,81,0.00,,,0.01,0,Wunderground v.1.15,2013-03-03 00:14:00,
2013-03-02 19:19:00,28.3,23.2,30.12,North,9,4.0,5.0,81,0.00,,,0.01,0,Wunderground v.1.15,2013-03-03 00:19:00,
2013-03-02 19:24:00,28.3,23.2,30.12,NNE,24,3.0,6.0,81,0.00,,,0.01,0,Wunderground v.1.15,2013-03-03 00:24:00,
2013-03-02 19:29:00,28.3,23.5,30.13,NNW,327,4.0,5.0,82,0.00,,,0.01,0,Wunderground v.1.15,2013-03-03 00:29:00,
2013-03-02 19:34:00,28.3,23.5,30.12,North,11,5.0,7.0,82,0.00,,,0.01,0,Wunderground v.1.15,2013-03-03 00:34:00,
2013-03-02 19:39:00,28.3,23.2,30.12,North,5,3.0,4.0,81,0.00,,,0.01,0,Wunderground v.1.15,2013-03-03 00:39:00,
2013-03-02 19:44:00,28.2,22.8,30.12,NNE,17,4.0,7.0,80,0.00,,,0.01,0,Wunderground v.1.15,2013-03-03 00:44:00,
2013-03-02 19:49:00,28.2,23.1,30.12,North,11,5.0,5.0,81,0.00,,,0.01,0,Wunderground v.1.15,2013-03-03 00:49:00,
2013-03-02 19:54:00,28.1,22.7,30.12,North,360,3.0,7.0,80,0.00,,,0.01,0,Wunderground v.1.15,2013-03-03 00:54:00,
2013-03-02 20:01:00,28.1,22.7,30.12,North,355,5.0,5.0,80,0.00,,,0.01,0,Wunderground v.1.15,2013-03-03 01:01:00,
2013-03-02 20:06:00,28.1,22.7,30.12,North,11,4.0,6.0,80,0.00,,,0.01,0,Wunderground v.1.15,2013-03-03 01:06:00,
2013-03-02 20:11:00,28.0,22.6,30.12,North,5,4.0,5.0,80,0.00,,,0.01,0,Wunderground v.1.15,2013-03-03 01:11:00,
2013-03-02 20:16:00,28.0,22.6,30.12,North,360,4.0,5.0,80,0.00,,,0.01,0,Wunderground v.1.15,2013-03-03 01:16:00,
2013-03-02 20:21:00,28.0,22.6,30.12,NNW,341,3.0,6.0,80,0.00,,,0.01,0,Wunderground v.1.15,2013-03-03 01:21:00,
2013-03-02 20:26:00,28.0,22.9,30.12,NNW,343,2.0,6.0,81,0.00,,,0.01,0,Wunderground v.1.15,2013-03-03 01:26:00,
2013-03-02 20:31:00,27.9,22.8,30.12,NNW,346,4.0,5.0,81,0.00,,,0.01,0,Wunderground v.1.15,2013-03-03 01:31:00,
2013-03-02 20:36:00,27.9,22.8,30.12,NW,316,3.0,6.0,81,0.00,,,0.01,0,Wunderground v.1.15,2013-03-03 01:36:00,
2013-03-02 20:41:00,27.9,22.8,30.12,NNW,343,3.0,5.0,81,0.00,,,0.01,0,Wunderground v.1.15,2013-03-03 01:41:00,
2013-03-02 20:46:00,27.9,22.8,30.13,NNW,327,3.0,6.0,81,0.00,,,0.01,0,Wunderground v.1.15,2013-03-03 01:46:00,
2013-03-02 20:51:00,27.9,22.8,30.13,NW,324,4.0,5.0,81,0.00,,,0.01,0,Wunderground v.1.15,2013-03-03 01:51:00,
2013-03-02 20:56:00,28.0,22.9,30.13,NNW,336,3.0,6.0,81,0.00,,,0.01,0,Wunderground v.1.15,2013-03-03 01:56:00,
2013-03-02 21:01:00,28.0,22.9,30.13,NNW,343,4.0,4.0,81,0.00,,,0.01,0,Wunderground v.1.15,2013-03-03 02:01:00,
2013-03-02 21:06:00,28.0,22.9,30.13,NNW,339,2.0,5.0,81,0.00,,,0.01,0,Wunderground v.1.15,2013-03-03 02:06:00,
2013-03-02 21:11:00,28.1,23.0,30.13,NNW,336,2.0,4.0,81,0.00,,,0.01,0,Wunderground v.1.15,2013-03-03 02:11:00,
2013-03-02 21:16:00,28.1,22.7,30.13,NNW,335,3.0,6.0,80,0.00,,,0.01,0,Wunderground v.1.15,2013-03-03 02:16:00,
2013-03-02 21:21:00,28.1,22.7,30.13,NNW,344,4.0,5.0,80,0.00,,,0.01,0,Wunderground v.1.15,2013-03-03 02:21:00,
2013-03-02 21:26:00,28.1,22.7,30.13,NNW,338,2.0,5.0,80,0.00,,,0.01,0,Wunderground v.1.15,2013-03-03 02:26:00,
2013-03-02 21:31:00,28.1,23.0,30.13,NW,320,3.0,4.0,81,0.00,,,0.01,0,Wunderground v.1.15,2013-03-03 02:31:00,
2013-03-02 21:37:00,28.1,22.7,30.13,NW,321,3.0,6.0,80,0.00,,,0.01,0,Wunderground v.1.15,2013-03-03 02:37:00,
2013-03-02 21:42:00,28.2,22.8,30.13,NNW,338,2.0,4.0,80,0.00,,,0.01,0,Wunderground v.1.15,2013-03-03 02:42:00,
2013-03-02 21:47:00,28.2,23.1,30.13,NW,323,2.0,4.0,81,0.00,,,0.01,0,Wunderground v.1.15,2013-03-03 02:47:00,
2013-03-02 21:52:00,28.1,23.3,30.13,NW,315,3.0,4.0,82,0.00,,,0.01,0,Wunderground v.1.15,2013-03-03 02:52:00,
2013-03-02 21:57:00,28.1,23.6,30.13,NW,309,2.0,4.0,83,0.00,,,0.01,0,Wunderground v.1.15,2013-03-03 02:57:00,
2013-03-02 22:02:00,28.0,23.5,30.13,NW,314,0.0,4.0,83,0.00,,,0.01,0,Wunderground v.1.15,2013-03-03 03:02:00,
2013-03-02 22:07:00,28.0,23.5,30.13,WNW,303,3.0,4.0,83,0.00,,,0.01,0,Wunderground v.1.15,2013-03-03 03:07:00,
2013-03-02 22:12:00,27.9,23.7,30.13,WNW,303,2.0,2.0,84,0.00,,,0.01,0,Wunderground v.1.15,2013-03-03 03:12:00,
2013-03-02 22:17:00,27.8,23.6,30.13,NW,310,2.0,3.0,84,0.00,,,0.01,0,Wunderground v.1.15,2013-03-03 03:17:00,
2013-03-02 22:22:00,27.7,23.5,30.13,WNW,303,2.0,3.0,84,0.00,,,0.01,0,Wunderground v.1.15,2013-03-03 03:22:00,
2013-03-02 22:27:00,27.6,23.7,30.12,NW,313,1.0,3.0,85,0.00,,,0.01,0,Wunderground v.1.15,2013-03-03 03:27:00,
2013-03-02 22:32:00,27.6,23.7,30.13,NW,318,2.0,4.0,85,0.00,,,0.01,0,Wunderground v.1.15,2013-03-03 03:32:00,
2013-03-02 22:37:00,27.5,23.9,30.13,NNW,330,2.0,4.0,86,0.00,,,0.01,0,Wunderground v.1.15,2013-03-03 03:37:00,
2013-03-02 22:42:00,27.5,23.9,30.13,NW,305,2.0,3.0,86,0.00,,,0.01,0,Wunderground v.1.15,2013-03-03 03:42:00,
2013-03-02 22:47:00,27.4,23.8,30.13,WNW,296,2.0,4.0,86,0.00,,,0.01,0,Wunderground v.1.15,2013-03-03 03:47:00,
2013-03-02 22:52:00,27.3,23.7,30.13,NW,316,5.0,5.0,86,0.00,,,0.01,0,Wunderground v.1.15,2013-03-03 03:52:00,
2013-03-02 22:57:00,27.3,23.7,30.13,NW,319,2.0,5.0,86,0.00,,,0.01,0,Wunderground v.1.15,2013-03-03 03:57:00,
2013-03-02 23:02:00,27.3,23.9,30.13,NW,307,1.0,4.0,87,0.00,,,0.01,0,Wunderground v.1.15,2013-03-03 04:02:00,
2013-03-02 23:07:00,27.2,23.8,30.13,NW,309,3.0,4.0,87,0.00,,,0.01,0,Wunderground v.1.15,2013-03-03 04:07:00,
2013-03-02 23:12:00,27.2,23.8,30.12,NW,310,3.0,4.0,87,0.00,,,0.01,0,Wunderground v.1.15,2013-03-03 04:12:00,
2013-03-02 23:17:00,27.2,23.8,30.12,NW,312,3.0,4.0,87,0.00,,,0.01,0,Wunderground v.1.15,2013-03-03 04:17:00,
2013-03-02 23:22:00,27.1,23.7,30.13,NW,315,6.0,6.0,87,0.00,,,0.01,0,Wunderground v.1.15,2013-03-03 04:22:00,
2013-03-02 23:27:00,27.1,24.0,30.13,NW,313,0.0,6.0,88,0.00,,,0.01,0,Wunderground v.1.15,2013-03-03 04:27:00,
2013-03-02 23:33:00,27.1,24.0,30.13,NW,306,5.0,5.0,88,0.00,,,0.01,0,Wunderground v.1.15,2013-03-03 04:33:00,
2013-03-02 23:38:00,27.1,24.0,30.13,NW,318,1.0,5.0,88,0.00,,,0.01,0,Wunderground v.1.15,2013-03-03 04:38:00,
2013-03-02 23:43:00,27.1,24.0,30.12,NNW,327,3.0,5.0,88,0.00,,,0.01,0,Wunderground v.1.15,2013-03-03 04:43:00,
2013-03-02 23:48:00,27.1,24.0,30.12,NW,317,4.0,5.0,88,0.00,,,0.01,0,Wunderground v.1.15,2013-03-03 04:48:00,
2013-03-02 23:53:00,27.1,24.0,30.12,NNW,333,1.0,3.0,88,0.00,,,0.01,0,Wunderground v.1.15,2013-03-03 04:53:00,
2013-03-02 23:58:00,27.1,24.0,30.12,NNW,328,3.0,3.0,88,0.00,,,0.01,0,Wunderground v.1.15,2013-03-03 04:58:00,